Showing default

GAOFEN 1-04, 43262

Orbit data source: Space-Track

GAOFEN 1-04, 43262 is a payload satellite owned by GGKGJ (CN) in SSO that was launched on Sat, 31 Mar 2018 UTC via a CHANG ZHENG 4C launch vehicle from the Taiyaun Space Center, China (TSC). Payloads include a variety of satellites, spacecraft, and rockets equipped with specific instruments for various scientific and technological missions. These include communications satellites like Starlink; space stations such as the ISS; scientific satellites like the Hubble; Earth observation satellites from companies like Planet Labs, Umbra, and HawkEye 360; GPS; miniature CubeSats for education and research; and military/defense satellites.

Loading next visibility...
GAOFEN 1-04 details
Identifier
43262, 2018-031D
Orbit
SSO
Last TLE update7 hours ago
Origin
Flag of CNGGKGJ (CN / PRC)
ManufacturerDFH
MissionOperational Civil Imaging
Bus & MotorCAST-2000, AOCS
Mass805 kg wet, ~700 kg dry
Launch date (UTC)
2018-03-31 (7 years ago)
Launch vehicle
CHANG ZHENG 4C
Launch site
Taiyaun Space Center, China (TSC)
Object type
Payload
Rocket body
Debris
Shape & HBRBox + 2 Pan, 4 m
Radar Cross Section4.991 m², Large (>1 m²)

Expand to show TLE details & history

TLE from 7 hours ago
0 GAOFEN 1-04
1 43262U 18031D   24361.17522452  .00002386  00000-0  34869-3 0  9996
2 43262  97.7990  62.4375 0001885  15.6300 344.4968 14.76597483363299
Epoch: 2024-12-26T04:12Z
Definitive object data (Epoch: 2024-12-26T04:12:19.398Z)
Latitude-0.00005°
Longitude-95.80171°
Altitude641.83 km
Speed7.538 km/s
True Right ascension04h 09m 45s
True Declination0° 00' 00"
Sunlit
Object was in full shadow at TLE epoch
Visualization TLE readout
Latitude-3.60955°
Longitude84.00108°
Altitude644.938 km
Speed7.534 km/s
Apparent Right ascension18h 42m 38s
Apparent Declination-30° 15' 10"
Sunlit
Object is in daylight
Visualization observer readout
Local Sidereal Time10:53:42
Azimuth99.808° ESE
Elevation-38.789°
Doppler factor1
Orbital elements
Apogee altitude638.448 km
Perigee altitude635.803 km
Semi-major axis7,015.263 km
Eccentricity0.0001885
Inclination97.799°
RAAN62.4375°
Arg. of periapsis15.63°
True anomaly344.49103°
Mean anomaly344.4968°
Eccentric anomaly344.49391°
Mean motion3.69383 °/min
BSTAR0.00034869
Orbital period97.46 mins
Loading maneuver chart data...
Loading historical data...
Loading historical data...
Loading historical data...
Loading historical data...
Loading historical data...
Loading historical data...
Loading historical data...

GAOFEN 1-04 Visibility forecast

Observer location: undefined°, undefined

Span
Click to sort rows by Start time (UTC) header in descending order
Start Az.
Max El. time (UTC)
Max El. Az.
Max El.
End time (UTC)
End Az.
5 mins2024-12-26 16:11:21.014Z56.791° ENE2024-12-26 16:13:21.014Z87.659° E17.758°2024-12-26 16:16:21.014Z134.147° SE
6 mins2024-12-26 17:47:21.014Z348.135° N2024-12-26 17:50:21.014Z286.652° WNW31.114°2024-12-26 17:53:21.014Z228.107° WSW
6 mins2024-12-27 04:44:21.014Z197.061° SSW2024-12-27 04:46:21.014Z244.257° WSW36.344°2024-12-27 04:50:21.014Z333.391° NNW
|